Miscellaneous Local Product
Issued by NWS North Platte, NE

Home | Current Version | Previous Version | Graphics & Text | Print | Product List | Glossary On
Versions: 1 2 3 4 5 6 7 8 9 10 11 12 13 14 15 16 17 18 19 20 21 22 23 24 25 26 27 28 29 30 31 32 33 34 35 36 37 38 39 40 41 42 43 44 45 46 47 48 49 50
266
AXUS43 KLBF 241010
MISLBF


WESTERN AND NORTH CENTRAL NEBRASKA HOURLY WEATHER ROUNDUP
NATIONAL WEATHER SERVICE NORTH PLATTE NE
500 AM CDT THU MAY 24 2018

NOTE: "FAIR" INDICATES FEW OR NO CLOUDS BELOW 12,000 FEET WITH NO
SIGNIFICANT WEATHER AND/OR OBSTRUCTIONS TO VISIBILITY.

NOTE: STATIONS NOT REPORTING VARIABLES SUCH AS SKY/WEATHER OR
PRESSURE ARE PROVIDED BY RAWS AND APRS NETWORKS AND ARE NOT UNDER
NATIONAL WEATHER SERVICE QUALITY CONTROL.

...OBSERVATIONS IN AND NEAR THE EASTERN PANHANDLE OF NEBRASKA...

CITY           SKY/WX    TMP DP  RH WIND       PRES   REMARKS
PINE RIDGE     CLEAR     57  51  80 CALM      29.95S
GORDON         FAIR      55  51  85 S5        29.99R
CHADRON        CLEAR     51  49  92 SW6       29.95F
ALLIANCE       CLEAR     52  51  97 SE3       30.01R
SIDNEY         PTCLDY    52  52 100 MISG      30.02R
CRESCENT LAKE    N/A     57  53  86 E9G16       N/A
$$

...OBSERVATIONS IN NORTHERN NEBRASKA AND FAR SOUTHERN SOUTH DAKOTA...

CITY           SKY/WX    TMP DP  RH WIND       PRES   REMARKS
WINNER         FAIR      65  55  70 S13       29.90S
VALENTINE      MOCLDY    62  56  80 SE6       29.96S
AINSWORTH      CLOUDY    60  58  94 SE18      29.96F
O`NEILL        CLOUDY    66  59  77 NW6       30.04S THUNDER
THEDFORD       MOCLDY    59  57  93 SE9       30.00S
BROKEN BOW     CLOUDY    64  58  80 CALM      30.03S
ORD            CLOUDY    66  59  78 NE9       30.02S
ALBION         CLOUDY    65  64  96 NW9       30.04R
VALENTINE NWR    N/A     61  55  79 SE10        N/A
HALSEY           N/A     58  58 100 E9          N/A
BUTTE            N/A     63  57  82 S12         N/A
CHAMBERS         N/A     63  58  84 CALM        N/A
EWING            N/A     65  60  83 N3          N/A
$$

...OBSERVATIONS IN SOUTHWEST NEBRASKA AND FAR NORTHEAST COLORADO...

CITY           SKY/WX    TMP DP  RH WIND       PRES   REMARKS
WRAY           FAIR      63  52  67 SW3       29.96S
HOLYOKE        FAIR      64  57  77 SW8       29.97S
IMPERIAL       CLOUDY    59  56  89 CALM      29.97R
OGALLALA       MOCLDY    64  60  86 E9        29.97S
NORTH PLATTE   MOCLDY    64  58  80 SE7       29.99S
MCCOOK         CLOUDY    64  57  78 S7        29.97S
LEXINGTON      CLOUDY    67  58  74 S10       29.99R
STAPLETON        N/A     59  57  92 E3G12       N/A
GOTHENBURG       N/A     65  55  69 SE3         N/A
CALLAWAY         N/A     64  59  85 E9          N/A
$$

...OBSERVATIONS IN CENTRAL LINCOLN COUNTY AREA...

CITY           SKY/WX    TMP DP  RH WIND       PRES   REMARKS
N.P. AIRPORT   MOCLDY    64  58  80 SE7       29.99S
N.P. DOWNTOWN    N/A     62  57  85 CALM        N/A
N.P. SOUTHEAST   N/A     62  57  83 CALM        N/A
$$

...OBSERVATIONS ACROSS THE ROCKIES AND WESTERN HIGH PLAINS...

CITY           SKY/WX    TMP DP  RH WIND       PRES   REMARKS
RAPID CITY     CLEAR     54  48  80 E7        29.91F
SCOTTSBLUFF    CLEAR     49  49 100 CALM      30.02S
CHEYENNE       CLEAR     46  40  79 W6        30.11F
DENVER         PTCLDY    52  45  77 W7        30.09R
BERTHOUD PASS  FAIR      34  25  69 W16G23    30.47F WCI  23
COPPER MTN     CLEAR     41  19  42 W6        30.46S
MONARCH PASS   PTCLDY    37  16  41 MISG      30.57S
ASPEN          CLEAR     42  24  49 S7        30.25R
STEAMBOAT      FAIR      39  35  86 CALM      30.21S
LARAMIE        CLEAR     36  32  85 W7        30.18R WCI  30
CASPER         PTCLDY    49  41  74 SW5       30.04R
$$

...OBSERVATIONS ACROSS THE NORTHERN PLAINS...

CITY           SKY/WX    TMP DP  RH WIND       PRES   REMARKS
BISMARCK       LGT RAIN  66  60  81 E3        29.80R
FARGO          FAIR      70  65  84 S14       29.85S
PIERRE         CLOUDY    65  58  78 SW13G23   29.86R
SIOUX FALLS    CLOUDY    72  63  73 S14       29.99R
$$

...OBSERVATIONS ACROSS THE CENTRAL AND SOUTHERN PLAINS...

CITY           SKY/WX    TMP DP  RH WIND       PRES   REMARKS
OMAHA          PTCLDY    71  64  78 S10       30.04S
GRAND ISLAND   CLOUDY    67  63  87 S9        30.01R
KANSAS CITY    CLOUDY    66  63  90 S7        30.09S
WICHITA        CLOUDY    69  62  78 SE9       30.01S
DODGE CITY     CLOUDY    67  54  63 S16G26    30.02F
OKLAHOMA CITY  PTCLDY    67  66  97 VRB5      30.07R
DALLAS         PTCLDY    74  68  81 SE9       30.05S
AMARILLO       CLOUDY    59  56  89 E12       30.12S
$$




USA.gov is the U.S. government's official web portal to all federal, state and local government web resources and services.